TimeCDT,TemperatureF,Dew PointF,Humidity,Sea Level PressureIn,VisibilityMPH,Wind Direction,Wind SpeedMPH,Gust SpeedMPH,PrecipitationIn,Events,Conditions,WindDirDegrees,DateUTC
12:53 AM,84.0,70.0,63,29.92,10.0,SE,4.6,-,N/A,,Clear,130,2012-07-06 05:53:00
1:53 AM,82.0,70.0,67,29.92,10.0,SW,4.6,-,N/A,,Clear,230,2012-07-06 06:53:00
2:53 AM,81.0,69.1,67,29.93,10.0,South,6.9,-,N/A,,Clear,170,2012-07-06 07:53:00
3:53 AM,77.0,70.0,79,29.93,10.0,SW,3.5,-,N/A,,Clear,220,2012-07-06 08:53:00
4:53 AM,78.1,70.0,76,29.95,10.0,West,4.6,-,N/A,,Clear,260,2012-07-06 09:53:00
5:53 AM,78.1,70.0,76,29.95,10.0,WSW,4.6,-,N/A,,Clear,250,2012-07-06 10:53:00
6:53 AM,84.0,71.1,65,29.95,10.0,West,3.5,-,N/A,,Clear,260,2012-07-06 11:53:00
7:53 AM,89.1,70.0,53,29.95,10.0,West,3.5,-,N/A,,Clear,280,2012-07-06 12:53:00
8:53 AM,93.0,69.1,45,29.96,10.0,Calm,Calm,-,N/A,,Clear,0,2012-07-06 13:53:00
9:53 AM,97.0,66.9,37,29.95,10.0,Variable,3.5,-,N/A,,Clear,0,2012-07-06 14:53:00
10:53 AM,100.9,64.0,30,29.95,10.0,Variable,3.5,-,N/A,,Clear,0,2012-07-06 15:53:00
11:53 AM,102.0,62.1,27,29.95,10.0,Variable,4.6,-,N/A,,Clear,0,2012-07-06 16:53:00
12:53 PM,105.1,64.0,26,29.94,10.0,North,10.4,-,N/A,,Partly Cloudy,10,2012-07-06 17:53:00
1:53 PM,105.1,59.0,22,29.92,10.0,NNE,13.8,17.3,N/A,,Partly Cloudy,30,2012-07-06 18:53:00
2:53 PM,105.1,55.0,19,29.90,10.0,NNE,8.1,-,N/A,,Clear,20,2012-07-06 19:53:00
3:53 PM,105.1,59.0,22,29.88,10.0,NW,5.8,-,N/A,,Clear,320,2012-07-06 20:53:00
4:53 PM,102.2,59.0,24,29.89,10.0,NE,6.9,-,N/A,,Clear,40,2012-07-06 21:53:00
5:53 PM,105.1,57.9,21,29.88,10.0,ENE,10.4,-,N/A,,Clear,60,2012-07-06 22:53:00
6:53 PM,91.9,66.9,44,29.89,10.0,SSW,8.1,16.1,N/A,,Clear,200,2012-07-06 23:53:00
7:53 PM,89.1,66.0,46,29.91,10.0,SW,9.2,-,N/A,,Clear,230,2012-07-07 00:53:00
8:53 PM,84.9,66.9,55,29.92,10.0,WSW,3.5,-,N/A,,Clear,240,2012-07-07 01:53:00
9:53 PM,82.0,66.9,60,29.95,10.0,SSE,4.6,-,N/A,,Clear,160,2012-07-07 02:53:00
10:53 PM,81.0,66.9,62,29.96,10.0,WSW,5.8,-,N/A,,Clear,240,2012-07-07 03:53:00
11:53 PM,81.0,66.9,62,29.95,10.0,SW,5.8,-,N/A,,Clear,230,2012-07-07 04:53:00